FW2589 Weather Reports


time (UTC)temp
C
wind
direction
speed
KPH
gust
KPH
rain 1hr
cm
rain 24hr
cm
rain mn
cm
humidity
%
barometer
mb
20260510190523 9 130 3.2 8.0 0.00 0.00 0.00 100 1030.0
20260510190023 9 133 4.8 9.7 0.00 0.00 0.00 100 1030.0
20260510185522 10 132 6.4 12.9 0.00 0.00 0.00 100 1030.0
20260510185022 10 101 0.0 4.8 0.00 0.00 0.00 100 1030.0
20260510184523 10 101 0.0 4.8 0.00 0.00 0.00 100 1030.0
20260510184022 10 101 0.0 4.8 0.00 0.00 0.00 100 1030.0
20260510183523 10 101 0.0 4.8 0.00 0.00 0.00 100 1030.0
20260510183024 10 101 0.0 4.8 0.00 0.00 0.00 100 1030.0
20260510182522 10 101 0.0 4.8 0.00 0.00 0.00 100 1030.0
20260510182023 10 101 0.0 4.8 0.00 0.00 0.00 100 1030.0
20260510181523 10 101 0.0 4.8 0.00 0.00 0.00 100 1030.0
20260510181023 10 101 0.0 4.8 0.00 0.00 0.00 100 1030.0
20260510180523 10 101 0.0 4.8 0.00 0.00 0.00 100 1030.0
20260510180024 10 101 0.0 4.8 0.00 0.00 0.00 100 1030.0
20260510175522 10 101 0.0 4.8 0.00 0.00 0.00 100 1030.0
20260510175022 10 101 0.0 4.8 0.00 0.00 0.00 100 1030.0
20260510174638 10 101 0.0 4.8 0.00 0.00 0.00 100 1030.0
20260510174022 10 101 0.0 4.8 0.00 0.00 0.00 100 1030.0
20260510173638 10 101 0.0 4.8 0.00 0.00 0.00 100 1030.0
20260510173024 10 101 0.0 4.8 0.00 0.00 0.00 100 1030.0
20260510172522 10 101 0.0 4.8 0.00 0.00 0.00 100 1030.0
20260510172022 10 101 0.0 4.8 0.00 0.00 0.00 100 1030.0
20260510171638 10 101 0.0 4.8 0.00 0.00 0.00 100 1030.0
20260510171023 10 101 0.0 4.8 0.00 0.00 0.00 100 1030.0
20260510170523 10 101 0.0 4.8 0.00 0.00 0.00 100 1030.0
20260510170023 10 101 0.0 4.8 0.00 0.00 0.00 100 1030.0
20260510165522 10 101 0.0 4.8 0.00 0.00 0.00 100 1030.0
20260510165023 10 101 0.0 4.8 0.00 0.00 0.00 100 1030.0
20260510164523 9 100 0.0 1.6 0.00 0.00 0.00 100 1030.0
20260510164022 9 116 0.0 3.2 0.00 0.00 0.00 100 1030.0
20260510163522 10 126 3.2 6.4 0.00 0.00 0.00 100 1030.0
20260510163023 10 124 4.8 12.9 0.00 0.00 0.00 100 1030.0
20260510162523 10 113 4.8 9.7 0.00 0.00 0.00 100 1030.0
20260510162022 10 115 4.8 11.3 0.00 0.00 0.00 100 1030.0
20260510161523 10 118 3.2 8.0 0.00 0.00 0.00 100 1030.0
20260510161022 10 118 3.2 6.4 0.00 0.00 0.00 100 1030.0
20260510160523 10 122 3.2 6.4 0.00 0.00 0.00 100 1030.0
20260510160140 10 123 3.2 6.4 0.00 0.00 0.00 100 1030.0
20260510155523 10 126 3.2 6.4 0.00 0.00 0.00 100 1030.0
20260510155137 10 129 1.6 8.0 0.00 0.00 0.00 100 1030.0
20260510154523 10 130 1.6 6.4 0.00 0.00 0.00 100 1030.0
20260510154137 10 133 3.2 4.8 0.00 0.00 0.00 100 1030.0
20260510153523 10 135 3.2 6.4 0.00 0.00 0.00 100 1030.0
20260510153023 10 132 3.2 6.4 0.00 0.00 0.00 100 1030.0
20260510152523 10 126 3.2 8.0 0.00 0.00 0.00 100 1030.0
20260510152022 10 120 3.2 6.4 0.00 0.00 0.00 100 1030.0
20260510151523 10 123 3.2 6.4 0.00 0.00 0.00 100 1030.0
20260510151022 10 124 4.8 9.7 0.00 0.00 0.00 100 1030.0
20260510150637 10 123 3.2 9.7 0.00 0.00 0.00 100 1030.0
20260510150024 10 128 3.2 4.8 0.00 0.00 0.00 100 1030.0
20260510145523 10 131 4.8 8.0 0.00 0.00 0.00 100 1030.0
20260510145022 10 131 4.8 11.3 0.00 0.00 0.00 100 1030.0
20260510144523 10 131 4.8 9.7 0.00 0.00 0.00 100 1030.0
20260510144023 10 124 3.2 8.0 0.00 0.00 0.00 100 1030.0
20260510143523 10 121 1.6 8.0 0.00 0.00 0.00 100 1030.0
20260510143138 10 126 0.0 4.8 0.00 0.00 0.00 100 1030.0
20260510142522 10 130 1.6 3.2 0.00 0.00 0.00 100 1030.0
20260510142022 10 130 3.2 6.4 0.00 0.00 0.00 100 1030.0
20260510141523 10 129 3.2 6.4 0.00 0.00 0.00 100 1030.0
20260510141023 10 128 3.2 8.0 0.00 0.00 0.00 100 1030.0
20260510140523 11 126 4.8 8.0 0.00 0.00 0.00 100 1030.0
20260510140024 11 123 4.8 9.7 0.00 0.00 0.00 100 1030.0
20260510135522 11 123 4.8 6.4 0.00 0.00 0.00 100 1030.0
20260510135022 11 124 3.2 6.4 0.00 0.00 0.00 100 1030.0
20260510134523 10 119 3.2 6.4 0.00 0.00 0.00 100 1030.0
20260510134023 10 116 3.2 6.4 0.00 0.00 0.00 100 1030.0
20260510133523 11 121 3.2 6.4 0.00 0.00 0.00 100 1030.0
20260510133023 11 124 4.8 6.4 0.00 0.00 0.00 100 1030.0
20260510132522 11 121 3.2 6.4 0.00 0.00 0.00 100 1030.0
20260510132022 11 122 3.2 6.4 0.00 0.00 0.00 100 1030.0
20260510131523 10 130 3.2 6.4 0.00 0.00 0.00 100 1030.0
20260510131023 10 133 3.2 6.4 0.00 0.00 0.00 100 1030.0
20260510130522 10 116 1.6 4.8 0.00 0.00 0.00 100 1030.0
20260510130023 10 94 0.0 3.2 0.00 0.00 0.00 100 1030.0
20260510125522 10 118 0.0 3.2 0.00 0.00 0.00 100 1030.0
20260510125022 10 140 1.6 3.2 0.00 0.00 0.00 100 1030.0
20260510124523 11 136 1.6 4.8 0.00 0.00 0.00 100 1030.0
20260510124023 11 129 1.6 6.4 0.00 0.00 0.00 100 1030.0
20260510123523 11 122 1.6 4.8 0.00 0.00 0.00 100 1030.0
20260510123138 10 124 0.0 4.8 0.00 0.00 0.00 100 1030.0
20260510122522 11 126 1.6 3.2 0.00 0.00 0.00 100 1030.0
20260510122023 11 129 3.2 6.4 0.00 0.00 0.00 100 1030.0
20260510121638 11 132 1.6 8.0 0.00 0.00 0.00 100 1030.0
20260510121023 11 133 1.6 4.8 0.00 0.00 0.00 100 1030.0
20260510120638 11 131 1.6 6.4 0.00 0.00 0.00 100 1030.0
20260510120024 11 124 1.6 6.4 0.00 0.00 0.00 100 1030.0
20260510115522 11 127 1.6 4.8 0.00 0.00 0.00 100 1030.0
20260510115137 11 153 0.0 4.8 0.00 0.00 0.00 100 1030.0
20260510114638 11 157 0.0 3.2 0.00 0.00 0.00 100 1030.0
20260510114023 11 139 3.2 6.4 0.00 0.00 0.00 100 1030.0
20260510113523 11 127 1.6 6.4 0.00 0.00 0.00 100 1030.0
20260510113022 11 126 1.6 4.8 0.00 0.00 0.00 100 1030.0
20260510112522 11 129 1.6 3.2 0.00 0.00 0.00 100 1030.0
20260510112023 10 132 0.0 3.2 0.00 0.00 0.00 100 1029.0
20260510111524 10 138 0.0 1.6 0.00 0.00 0.00 100 1029.0
20260510111137 10 122 0.0 0.0 0.00 0.00 0.00 100 1029.0
20260510110637 11 102 0.0 1.6 0.00 0.00 0.00 100 1029.0
20260510110023 11 100 0.0 0.0 0.00 0.00 0.00 100 1029.0
20260510105523 11 112 0.0 1.6 0.00 0.00 0.00 100 1029.0
20260510105138 11 116 0.0 3.2 0.00 0.00 0.00 100 1029.0
20260510104523 11 110 0.0 1.6 0.00 0.00 0.00 100 1029.0
20260510104022 11 112 0.0 3.2 0.00 0.00 0.00 100 1029.0
20260510103523 11 120 0.0 1.6 0.00 0.00 0.00 100 1029.0
20260510103024 12 133 1.6 4.8 0.00 0.00 0.00 100 1029.0
20260510102522 12 136 3.2 4.8 0.00 0.00 0.00 100 1029.0
20260510102023 12 135 3.2 6.4 0.00 0.00 0.00 100 1029.0
20260510101526 12 137 3.2 3.2 0.00 0.00 0.00 100 1029.0
20260510101023 12 139 1.6 3.2 0.00 0.00 0.00 100 1029.0
20260510100523 12 134 1.6 3.2 0.00 0.00 0.00 100 1029.0
20260510100023 12 114 0.0 3.2 0.00 0.00 0.00 100 1029.0
20260510095522 12 73 0.0 1.6 0.00 0.00 0.00 100 1029.0
20260510095022 12 57 0.0 0.0 0.00 0.00 0.00 100 1029.0
20260510094523 12 57 0.0 0.0 0.00 0.00 0.00 100 1029.0
20260510094023 13 57 0.0 0.0 0.00 0.00 0.00 100 1029.0
20260510093523 13 57 0.0 0.0 0.00 0.00 0.00 100 1029.0
20260510093023 13 57 0.0 0.0 0.00 0.00 0.00 100 1029.0
20260510092522 13 57 0.0 0.0 0.00 0.00 0.00 100 1029.0
20260510092023 13 57 0.0 0.0 0.00 0.00 0.00 100 1029.0
20260510091524 13 50 0.0 0.0 0.00 0.00 0.00 100 1029.0
20260510091137 13 38 0.0 1.6 0.00 0.00 0.00 100 1029.0
20260510090637 13 33 0.0 0.0 0.00 0.00 0.00 100 1028.0
20260510090023 13 33 0.0 0.0 0.00 0.00 0.00 100 1028.0
20260510085523 13 30 0.0 0.0 0.00 0.00 0.00 100 1028.0
20260510085023 13 25 1.6 1.6 0.00 0.00 0.00 100 1028.0
20260510084638 13 22 3.2 4.8 0.00 0.00 0.00 100 1028.0
20260510084022 13 18 3.2 4.8 0.00 0.00 0.00 100 1028.0
20260510083523 13 16 1.6 3.2 0.00 0.00 0.00 100 1028.0
20260510083024 12 15 0.0 3.2 0.00 0.00 0.00 100 1028.0
20260510082637 12 12 0.0 1.6 0.00 0.00 0.00 100 1028.0
20260510082023 12 12 0.0 3.2 0.00 0.00 0.00 100 1028.0
20260510081523 12 12 0.0 0.0 0.00 0.00 0.00 100 1028.0
20260510081023 13 13 0.0 0.0 0.00 0.00 0.00 100 1028.0
20260510080523 13 14 0.0 1.6 0.00 0.00 0.00 99 1028.0
20260510080024 13 19 0.0 3.2 0.00 0.00 0.00 97 1028.0
20260510075523 13 26 0.0 1.6 0.00 0.00 0.00 95 1028.0
20260510075023 13 40 0.0 0.0 0.00 0.00 0.00 93 1028.0
20260510074523 13 93 0.0 1.6 0.00 0.00 0.00 92 1028.0
20260510074023 14 122 0.0 0.0 0.00 0.00 0.00 91 1028.0
20260510073523 14 122 0.0 0.0 0.00 0.00 0.00 90 1028.0
20260510073023 15 122 0.0 0.0 0.00 0.00 0.00 88 1028.0
20260510072523 15 117 0.0 0.0 0.00 0.00 0.00 85 1028.0
20260510072023 15 114 0.0 1.6 0.00 0.00 0.00 80 1027.0
20260510071640 16 113 0.0 0.0 0.00 0.00 0.00 78 1027.0
20260510071022 17 111 0.0 0.0 0.00 0.00 0.00 75 1027.0
20260510070523 17 111 0.0 0.0 0.00 0.00 0.00 74 1027.0
20260510070024 18 114 0.0 1.6 0.00 0.00 0.00 74 1027.0
20260510065523 18 119 1.6 1.6 0.00 0.00 0.00 73 1027.0
20260510065022 18 125 1.6 4.8 0.00 0.00 0.00 71 1027.0
20260510064523 19 137 3.2 3.2 0.00 0.00 0.00 70 1027.0
20260510064023 19 129 1.6 4.8 0.00 0.00 0.00 70 1027.0
20260510063523 20 108 0.0 1.6 0.00 0.00 0.00 67 1027.0
20260510063138 20 112 0.0 3.2 0.00 0.00 0.00 65 1027.0
20260510062522 21 116 0.0 3.2 0.00 0.00 0.00 64 1027.0
20260510062022 21 121 1.6 3.2 0.00 0.00 0.00 64 1027.0
20260510061523 21 123 0.0 4.8 0.00 0.00 0.00 64 1027.0
20260510061022 21 130 0.0 3.2 0.00 0.00 0.00 63 1027.0
20260510060522 21 177 0.0 1.6 0.00 0.00 0.00 62 1027.0
20260510060023 21 202 0.0 0.0 0.00 0.00 0.00 61 1027.0
20260510055523 21 197 0.0 1.6 0.00 0.00 0.00 62 1027.0
20260510055138 21 183 0.0 1.6 0.00 0.00 0.00 63 1027.0
20260510054523 21 157 0.0 1.6 0.00 0.00 0.00 62 1027.0
20260510054022 21 122 0.0 3.2 0.00 0.00 0.00 61 1027.0
20260510053523 22 106 0.0 3.2 0.00 0.00 0.00 59 1027.0
20260510053024 21 137 0.0 3.2 0.00 0.00 0.00 61 1027.0
20260510052637 21 167 0.0 3.2 0.00 0.00 0.00 64 1027.0
20260510052023 21 162 0.0 1.6 0.00 0.00 0.00 61 1027.0
20260510051524 21 162 0.0 3.2 0.00 0.00 0.00 64 1027.0
20260510051138 21 166 1.6 3.2 0.00 0.00 0.00 65 1027.0
20260510050522 21 165 1.6 3.2 0.00 0.00 0.00 64 1027.0
20260510050023 21 144 1.6 4.8 0.00 0.00 0.00 60 1027.0
20260510045523 21 136 1.6 4.8 0.00 0.00 0.00 62 1027.0
20260510045137 21 167 1.6 3.2 0.00 0.00 0.00 63 1027.0
20260510044523 21 175 3.2 4.8 0.00 0.00 0.00 65 1027.0
20260510044023 21 142 1.6 6.4 0.00 0.00 0.00 66 1027.0
20260510043522 21 143 1.6 6.4 0.00 0.00 0.00 64 1027.0
20260510043023 20 177 3.2 6.4 0.00 0.00 0.00 68 1027.0
20260510042523 20 171 3.2 6.4 0.00 0.00 0.00 68 1027.0
20260510042022 21 169 3.2 6.4 0.00 0.00 0.00 70 1027.0
20260510041523 21 185 3.2 8.0 0.00 0.00 0.00 70 1027.0
20260510041023 21 185 3.2 4.8 0.00 0.00 0.00 68 1027.0
20260510040522 20 204 3.2 8.0 0.00 0.00 0.00 71 1027.0
20260510040023 21 213 3.2 6.4 0.00 0.00 0.00 69 1027.0
20260510035523 21 173 0.0 6.4 0.00 0.00 0.00 72 1027.0
20260510035023 20 153 0.0 4.8 0.00 0.00 0.00 73 1027.0
20260510034523 20 158 0.0 6.4 0.00 0.00 0.00 78 1027.0
20260510034022 20 169 1.6 4.8 0.00 0.00 0.00 80 1027.0
20260510033523 19 167 1.6 6.4 0.00 0.00 0.00 79 1027.0
20260510033024 20 147 0.0 6.4 0.00 0.00 0.00 79 1027.0
20260510032522 20 137 0.0 6.4 0.00 0.00 0.00 78 1027.0
20260510032137 19 146 0.0 4.8 0.00 0.00 0.00 80 1028.0
20260510031523 19 148 1.6 6.4 0.00 0.00 0.00 85 1028.0
20260510031023 18 140 0.0 6.4 0.00 0.00 0.00 83 1028.0
20260510030523 18 140 0.0 4.8 0.00 0.00 0.00 84 1028.0
20260510030023 18 136 1.6 6.4 0.00 0.00 0.00 86 1028.0
20260510025522 18 142 0.0 6.4 0.00 0.00 0.00 88 1028.0
20260510025022 18 143 0.0 6.4 0.00 0.00 0.00 90 1028.0
20260510024523 18 145 0.0 6.4 0.00 0.00 0.00 92 1028.0
20260510024023 17 160 1.6 8.0 0.00 0.00 0.00 95 1028.0
20260510023522 17 161 1.6 8.0 0.00 0.00 0.00 96 1028.0
20260510023023 17 160 1.6 8.0 0.00 0.00 0.00 97 1028.0
20260510022523 17 155 1.6 8.0 0.00 0.00 0.00 99 1028.0
20260510022022 16 144 1.6 8.0 0.00 0.00 0.00 100 1028.0
20260510021638 16 124 0.0 9.7 0.00 0.00 0.00 100 1028.0
20260510021022 16 115 0.0 4.8 0.00 0.00 0.00 100 1028.0
20260510020523 16 133 0.0 4.8 0.00 0.00 0.00 100 1028.0
20260510020025 15 141 1.6 6.4 0.00 0.00 0.00 100 1028.0
20260510015638 15 138 3.2 8.0 0.00 0.00 0.00 100 1028.0
20260510015022 15 132 1.6 8.0 0.00 0.00 0.00 100 1029.0
20260510014523 15 133 1.6 6.4 0.00 0.00 0.00 100 1029.0
20260510014138 15 135 3.2 6.4 0.00 0.00 0.00 100 1029.0
20260510013637 14 136 3.2 8.0 0.00 0.00 0.00 100 1029.0
20260510013023 14 140 1.6 6.4 0.00 0.00 0.00 100 1029.0
20260510012522 13 146 3.2 6.4 0.00 0.00 0.00 100 1029.0
20260510012138 13 153 4.8 9.7 0.00 0.00 0.00 100 1029.0
20260510011523 13 150 3.2 9.7 0.00 0.00 0.00 100 1029.0
20260510011025 13 138 3.2 9.7 0.00 0.00 0.00 100 1029.0
20260510010522 13 137 4.8 8.0 0.00 0.00 0.00 100 1029.0
20260510010138 12 142 6.4 9.7 0.00 0.00 0.00 100 1029.0
20260510005522 12 141 4.8 9.7 0.00 0.00 0.00 100 1029.0
20260510005023 12 134 3.2 11.3 0.00 0.00 0.00 100 1029.0
20260510004523 12 129 3.2 9.7 0.00 0.00 0.00 100 1029.0
20260510004137 12 133 3.2 9.7 0.00 0.00 0.00 100 1029.0
20260510003637 12 143 3.2 8.0 0.00 0.00 0.00 100 1029.0
20260510003024 12 142 3.2 8.0 0.00 0.00 0.00 100 1029.0
20260510002523 12 140 3.2 9.7 0.00 0.00 0.00 100 1029.0
20260510002022 11 141 3.2 8.0 0.00 0.00 0.00 100 1029.0
20260510001523 11 138 3.2 8.0 0.00 0.00 0.00 100 1029.0
20260510001023 11 137 4.8 9.7 0.00 0.00 0.00 100 1029.0
20260510000523 11 138 4.8 9.7 0.00 0.00 0.00 100 1029.0
20260510000023 10 148 3.2 9.7 0.00 0.00 0.00 100 1029.0
20260509235522 11 151 0.0 6.4 0.00 0.00 0.00 100 1029.0
20260509235022 11 132 0.0 4.8 0.00 0.00 0.00 100 1029.0
20260509234638 11 129 0.0 0.0 0.00 0.00 0.00 100 1029.0
20260509234023 11 146 0.0 3.2 0.00 0.00 0.00 100 1029.0
20260509233637 10 169 0.0 3.2 0.00 0.00 0.00 100 1029.0
20260509233023 10 192 0.0 0.0 0.00 0.00 0.00 100 1029.0
20260509232523 10 194 0.0 3.2 0.00 0.00 0.00 100 1029.0
20260509232023 10 187 0.0 3.2 0.00 0.00 0.00 100 1029.0
20260509231522 10 178 0.0 3.2 0.00 0.00 0.00 100 1029.0
20260509231023 10 163 0.0 0.0 0.00 0.00 0.00 100 1029.0
20260509230523 10 152 0.0 3.2 0.00 0.00 0.00 100 1029.0
20260509230024 9 160 0.0 3.2 0.00 0.00 0.00 100 1029.0
20260509225522 9 164 0.0 4.8 0.00 0.00 0.00 100 1029.0
20260509225023 9 154 0.0 3.2 0.00 0.00 0.00 100 1029.0
20260509224523 9 150 1.6 3.2 0.00 0.00 0.00 100 1029.0
20260509224023 8 144 3.2 4.8 0.00 0.00 0.00 100 1029.0
20260509223523 8 136 1.6 4.8 0.00 0.00 0.00 100 1028.0
20260509223023 8 144 0.0 3.2 0.00 0.00 0.00 100 1028.0
20260509222523 8 149 0.0 3.2 0.00 0.00 0.00 100 1028.0
20260509222023 8 133 0.0 3.2 0.00 0.00 0.00 100 1028.0
20260509221523 8 118 0.0 1.6 0.00 0.00 0.00 100 1028.0
20260509221022 8 114 0.0 0.0 0.00 0.00 0.00 100 1028.0
20260509220523 8 114 0.0 0.0 0.00 0.00 0.00 100 1028.0
20260509220024 8 114 0.0 0.0 0.00 0.00 0.00 100 1028.0
20260509215523 8 115 0.0 0.0 0.00 0.00 0.00 100 1028.0
20260509215022 8 118 0.0 1.6 0.00 0.00 0.00 100 1028.0
20260509214523 7 135 0.0 1.6 0.00 0.00 0.00 100 1028.0
20260509214138 7 142 0.0 3.2 0.00 0.00 0.00 100 1028.0
20260509213523 7 140 0.0 3.2 0.00 0.00 0.00 100 1028.0
20260509213023 7 149 1.6 3.2 0.00 0.00 0.00 100 1028.0
20260509212522 7 145 1.6 3.2 0.00 0.00 0.00 100 1028.0
20260509212138 7 132 3.2 6.4 0.00 0.00 0.00 100 1028.0
20260509211523 7 126 3.2 4.8 0.00 0.00 0.00 100 1028.0
20260509211023 7 126 3.2 8.0 0.00 0.00 0.00 100 1028.0
20260509210522 7 127 1.6 4.8 0.00 0.00 0.00 100 1028.0
20260509210138 7 126 0.0 3.2 0.00 0.00 0.00 100 1028.0
20260509205523 7 133 0.0 3.2 0.00 0.00 0.00 100 1028.0
20260509205023 7 140 1.6 3.2 0.00 0.00 0.00 100 1027.0
20260509204523 7 140 3.2 4.8 0.00 0.00 0.00 100 1027.0
20260509204022 7 144 3.2 4.8 0.00 0.00 0.00 100 1027.0
20260509203523 7 141 1.6 4.8 0.00 0.00 0.00 100 1027.0
20260509203138 7 62 0.0 3.2 0.00 0.00 0.00 100 1027.0
20260509202522 6 327 0.0 1.6 0.00 0.00 0.00 100 1027.0
20260509202023 6 326 0.0 1.6 0.00 0.00 0.00 100 1027.0
20260509201523 6 326 0.0 0.0 0.00 0.00 0.00 100 1027.0
20260509201023 6 325 0.0 1.6 0.00 0.00 0.00 100 1027.0
20260509200523 6 319 1.6 3.2 0.00 0.00 0.00 100 1027.0
20260509200023 6 313 0.0 3.2 0.00 0.00 0.00 100 1027.0
20260509195638 6 312 0.0 0.0 0.00 0.00 0.00 100 1027.0
20260509195023 7 312 0.0 0.0 0.00 0.00 0.00 100 1027.0
20260509194523 7 312 0.0 0.0 0.00 0.00 0.00 100 1027.0
20260509194023 7 311 0.0 0.0 0.00 0.00 0.00 100 1027.0
20260509193523 7 303 0.0 1.6 0.00 0.00 0.00 100 1026.0
20260509193023 8 201 0.0 1.6 0.00 0.00 0.00 100 1026.0
20260509192522 8 140 1.6 4.8 0.00 0.00 0.00 100 1026.0
20260509192022 8 135 1.6 4.8 0.00 0.00 0.00 100 1026.0
20260509191638 8 132 1.6 3.2 0.00 0.00 0.00 100 1026.0
20260509191022 8 136 3.2 8.0 0.00 0.00 0.00 100 1026.0